Regional Weather Roundup
Issued by NWS Little Rock, AR

Home | Current Version | Previous Version | Text Only | Print | Product List | Glossary On
Versions: 1 2 3 4 5 6 7 8 9 10 11 12 13 14 15 16 17 18 19 20 21 22 23 24 25 26 27 28 29 30 31 32 33 34 35 36 37 38 39 40 41 42 43 44 45 46 47 48
000
ASUS44 KLZK 040905
RWRLZK

WEATHER ROUNDUP FOR ARKANSAS
NATIONAL WEATHER SERVICE LITTLE ROCK AR
400 AM CDT MON MAY 04 2015

NOTE: "FAIR" INDICATES FEW OR NO CLOUDS BELOW 12,000 FEET WITH NO
SIGNIFICANT WEATHER AND/OR OBSTRUCTIONS TO VISIBILITY.

ARZ001-003-010-029-041000-
NORTHWEST ARKANSAS

CITY           SKY/WX    TMP DP  RH WIND       PRES   REMARKS
FAYETTEVILLE   CLOUDY    57  56  96 CALM      30.06R
FORT SMITH     PTCLDY    62  55  77 NE3       30.03R
HARRISON       MOCLDY    63  55  75 CALM      30.06R
BENTONVILLE    CLOUDY   N/A N/A N/A CALM      30.07R
ROGERS         CLOUDY    62  56  80 W3        30.07R
SILOAM SPGS    CLOUDY    61  52  72 SW3       30.07R
HIGHFILL       CLOUDY    63  54  72 SW6       30.06R
$$

ARZ004-005-016-041000-
NORTH CENTRAL ARKANSAS

CITY           SKY/WX    TMP DP  RH WIND       PRES   REMARKS
BATESVILLE     CLEAR     63  55  77 S5        30.07R
FLIPPIN        MOCLDY    59  55  88 CALM      30.03S
MTN HOME       MOCLDY    64  56  75 S3        30.04S
$$

ARZ040-041-041000-
WEST CENTRAL ARKANSAS

CITY           SKY/WX    TMP DP  RH WIND       PRES   REMARKS
MENA           PTCLDY    70  55  60 S3        30.06R
MOUNT IDA      CLEAR     57  54  89 CALM      30.04R FOG
$$

ARZ009-017-025-026-028-041000-
NORTHEAST ARKANSAS

CITY           SKY/WX    TMP DP  RH WIND       PRES   REMARKS
CORNING          N/A     64  55  72 S6        30.06S
JONESBORO      CLEAR     56  54  93 CALM      30.07S
NEWPORT        CLEAR     60  56  87 S6        30.08S
WALNUT RIDGE   CLEAR     61  54  77 S8        30.06R
BLYTHEVILLE    CLEAR     63  51  65 S7        30.08S
$$

ARZ022-023-033-042-044-041000-
CENTRAL ARKANSAS

CITY           SKY/WX    TMP DP  RH WIND       PRES   REMARKS
LITTLE ROCK    CLEAR     63  55  75 CALM      30.07R
N LITTLE ROCK    N/A     65  59  81 SW6       30.07R
JACKSONVILLE   CLEAR     58  56  95 CALM      30.06R
SEARCY         CLEAR     58  56  93 CALM      30.09R
HOT SPRINGS    CLEAR     61  57  87 CALM      30.07R
RUSSELLVILLE   CLEAR     58  56  93 CALM      30.05S
CLINTON        FAIR      54  54 100 CALM      30.08R FOG
$$

ARZ036-041000-
EAST ARKANSAS

CITY           SKY/WX    TMP DP  RH WIND       PRES   REMARKS
WEST MEMPHIS   CLEAR     62  56  80 S5        30.08R
$$

ARZ050-053-066-070-073-041000-
SOUTHWEST ARKANSAS

CITY           SKY/WX    TMP DP  RH WIND       PRES   REMARKS
ARKADELPHIA    FOG       57  57 100 CALM      30.08R VSB 1
CAMDEN         CLEAR     57  55  94 CALM      30.07R FOG
TEXARKANA      CLEAR     63  57  81 SW8       30.06R
EL DORADO      PTCLDY    60  58  92 CALM      30.08R
DE QUEEN       MOCLDY    57  55  93 E3        30.03S FOG
$$

ARZ056-057-069-041000-
SOUTHEAST ARKANSAS

CITY           SKY/WX    TMP DP  RH WIND       PRES   REMARKS
PINE BLUFF     CLEAR     63  56  78 SW3       30.08R
STUTTGART      CLEAR     63  54  72 S6        30.09R
MONTICELLO     CLEAR     66  57  72 S7        30.08R

$$




USA.gov is the U.S. government's official web portal to all federal, state and local government web resources and services.